Weather reports worldwide

Advertisment
London/Heathrow Intl, United Kingdom (3772): temperature & dewpoint: 19.09.2018 22:00:00 - 25.09.2018 22:00:00 (BST)London/Heathrow Intl, United Kingdom (3772): wind speed & gusts: 19.09.2018 22:00:00 - 25.09.2018 22:00:00 (BST)London/Heathrow Intl, United Kingdom (3772): wind direction: 19.09.2018 22:00:00 - 25.09.2018 22:00:00 (BST)London/Heathrow Intl, United Kingdom (3772): reduced air pressure: 19.09.2018 22:00:00 - 25.09.2018 22:00:00 (BST)London/Heathrow Intl, United Kingdom (3772): visibility: 19.09.2018 22:00:00 - 25.09.2018 22:00:00 (BST)London/Heathrow Intl, United Kingdom (3772): sunshine duration: 19.09.2018 22:00:00 - 25.09.2018 22:00:00 (BST)London/Heathrow Intl, United Kingdom (3772): precipitation: 19.09.2018 22:00:00 - 25.09.2018 22:00:00 (BST)
Date & Time tt [°C] td [°C] ff [km/h] ff [kn] fx [km/h] fx [kn] dd ppp [hPa] vv [km] sd [min] rr [mm]
25.09.2018 22:00:00 11,6 5,2 13 7 - - SW 1035,8 10 0 0,0
25.09.2018 21:00:00 12,4 4,7 13 7 - - SSW 1035,9 10 0 0,0
25.09.2018 20:00:00 13,4 4,2 16 9 - - SSW 1035,7 10 0 0,0
25.09.2018 19:00:00 14,4 4,5 16 9 - - S 1035,7 10 30 0,0
25.09.2018 18:00:00 15,8 4,9 16 9 - - SSW 1035,9 10 60 0,0
25.09.2018 17:00:00 16,9 4,8 18 10 - - S 1035,8 10 60 0,0
25.09.2018 16:00:00 17,0 4,9 16 9 - - SSW 1036,2 10 60 0,0
25.09.2018 15:00:00 17,4 4,6 16 9 - - SSW 1036,9 10 54 0,0
25.09.2018 14:00:00 17,7 5,8 18 10 - - SW 1037,7 10 54 0,0
25.09.2018 13:00:00 17,2 6,6 13 7 - - SW 1038,5 10 48 0,0
25.09.2018 12:00:00 15,0 5,4 11 6 - - - 1039,1 10 54 0,0
25.09.2018 11:00:00 14,5 4,2 5 3 - - SSE 1039,4 28 60 0,0
25.09.2018 10:00:00 11,9 5,3 2 1 - - - 1039,5 10 60 0,0
25.09.2018 09:00:00 8,0 4,6 2 1 - - - 1039,1 10 54 0,0
25.09.2018 08:00:00 5,2 3,6 4 2 - - N 1038,8 10 30 0,0
25.09.2018 07:00:00 4,4 3,4 4 2 - - NW 1038,6 22 0 0,0
25.09.2018 06:00:00 4,1 2,9 2 1 - - - 1038,9 10 0 0,0
25.09.2018 05:00:00 4,8 3,6 2 1 - - NW 1038,8 10 0 0,0
25.09.2018 04:00:00 4,7 3,5 2 1 - - - 1038,9 10 0 0,0
25.09.2018 03:00:00 5,4 3,5 2 1 - - NW 1039,0 10 0 0,0
25.09.2018 02:00:00 6,0 3,9 4 2 - - NNW 1039,2 10 0 0,0
25.09.2018 01:00:00 6,2 4,2 2 1 - - N 1039,3 10 - 0,0
25.09.2018 00:00:00 7,6 4,4 0 0 - - N 1039,2 10 0 0,0
24.09.2018 23:00:00 8,2 2,7 2 1 - - ENE 1039,1 10 0 0,0
24.09.2018 22:00:00 10,1 2,8 4 2 - - - 1038,8 10 0 0,0
24.09.2018 21:00:00 11,1 1,8 4 2 - - N 1038,5 10 0 0,0
24.09.2018 20:00:00 12,2 1,3 4 2 - - - 1038,3 10 0 0,0
24.09.2018 19:00:00 13,8 0,0 5 3 - - - 1037,8 10 42 0,0
24.09.2018 18:00:00 15,0 0,9 9 5 - - N 1037,4 10 60 0,0
24.09.2018 17:00:00 15,4 1,1 9 5 - - N 1037,3 10 60 0,0
24.09.2018 16:00:00 15,5 1,0 8 4 - - - 1037,7 10 60 0,0
24.09.2018 15:00:00 15,5 1,6 9 5 - - NNW 1038,1 10 60 0,0
24.09.2018 14:00:00 15,0 2,6 11 6 - - NW 1038,2 10 60 0,0
24.09.2018 13:00:00 14,0 2,1 11 6 - - NW 1038,3 10 60 0,0
24.09.2018 12:00:00 13,4 3,3 13 7 - - NW 1038,5 10 60 0,0
24.09.2018 11:00:00 12,9 4,4 11 6 - - NW 1038,3 10 60 0,0
24.09.2018 10:00:00 10,5 6,0 8 4 - - NNW 1037,9 10 60 0,0
24.09.2018 09:00:00 8,5 5,4 9 5 - - W 1037,3 10 54 0,0
24.09.2018 08:00:00 7,0 5,2 8 4 - - WNW 1036,7 10 36 0,0
24.09.2018 07:00:00 6,4 4,9 9 5 - - WNW 1036,0 26 0 0,0
24.09.2018 06:00:00 5,6 4,5 8 4 - - W 1035,6 10 0 0,0
24.09.2018 05:00:00 5,9 5,3 9 5 - - W 1035,2 10 0 0,0
24.09.2018 04:00:00 5,8 4,8 5 3 - - WNW 1034,5 10 0 0,0
24.09.2018 03:00:00 6,5 5,0 8 4 - - WNW 1034,2 10 0 0,0
24.09.2018 02:00:00 7,2 5,0 9 5 - - WNW 1033,4 10 0 0,0
24.09.2018 01:00:00 7,6 5,2 8 4 - - WNW 1032,5 10 - 0,0
24.09.2018 00:00:00 8,7 5,5 11 6 - - W 1031,6 10 0 0,0
23.09.2018 23:00:00 9,0 5,3 9 5 - - W 1030,6 10 0 0,0
23.09.2018 22:00:00 10,6 6,0 11 6 - - N 1029,6 10 0 0,0
23.09.2018 21:00:00 10,5 5,7 8 4 - - NW 1028,4 10 0 0,0
23.09.2018 20:00:00 10,9 5,2 9 5 - - NW 1026,8 10 0 0,0
23.09.2018 19:00:00 12,0 3,2 9 5 - - NW 1025,0 10 24 0,0
23.09.2018 18:00:00 13,8 2,1 13 7 - - N 1023,3 10 60 0,0
23.09.2018 17:00:00 13,8 2,6 22 12 - - NW 1022,3 10 30 0,0
23.09.2018 16:00:00 14,4 4,5 16 9 - - NW 1021,0 10 54 0,0
23.09.2018 15:00:00 12,9 5,2 21 11 - - NW 1020,3 10 54 0,0
23.09.2018 14:00:00 11,0 6,8 13 7 - - NW 1019,6 10 6 0,0
23.09.2018 13:00:00 9,5 7,3 8 4 - - NW 1018,6 10 0 0,0
23.09.2018 12:00:00 8,9 6,7 13 7 - - N 1017,7 10 0 0,6
23.09.2018 11:00:00 9,4 7,9 16 9 - - N 1016,3 10 0 1,8
23.09.2018 10:00:00 9,6 9,0 8 4 - - NNW 1015,8 6 0 4,8
23.09.2018 09:00:00 9,5 9,0 11 6 - - N 1014,3 6 0 3,6
23.09.2018 08:00:00 9,1 8,6 9 5 - - NE 1013,4 3,5 0 2,0
23.09.2018 07:00:00 9,3 8,7 13 7 - - NE 1013,3 2,5 0 0,4
23.09.2018 06:00:00 9,8 8,6 13 7 - - NE 1013,7 3,5 0 0,0
23.09.2018 05:00:00 10,3 9,5 9 5 - - NE 1013,1 3,8 0 0,0
23.09.2018 04:00:00 10,6 9,3 8 4 - - NE 1013,8 10 0 0,0
23.09.2018 03:00:00 10,4 9,9 11 6 - - NE 1013,7 5 0 0,0
23.09.2018 02:00:00 11,0 10,1 11 6 - - NE 1014,1 10 0 0,0
23.09.2018 01:00:00 10,8 10,3 9 5 - - NE 1014,0 5 - 0,0
23.09.2018 00:00:00 11,1 10,4 11 6 - - NE 1013,9 7 0 0,0
22.09.2018 23:00:00 11,1 10,4 9 5 - - ENE 1013,7 7 0 0,0
22.09.2018 22:00:00 11,0 10,4 11 6 - - ENE 1013,8 10 0 0,0
22.09.2018 21:00:00 10,8 10,2 11 6 - - ENE 1014,3 10 0 0,2
22.09.2018 20:00:00 10,6 10,1 15 8 - - E 1014,6 4,7 0 0,2
22.09.2018 19:00:00 10,5 10,1 13 7 - - E 1014,8 5 0 0,8
22.09.2018 18:00:00 10,9 10,4 13 7 - - E 1015,4 5 0 0,8
22.09.2018 17:00:00 10,8 10,0 15 8 - - E 1016,3 5 0 1,6
22.09.2018 16:00:00 11,4 9,8 9 5 - - ESE 1017,4 10 0 1,0
22.09.2018 15:00:00 11,6 9,5 9 5 - - SE 1018,0 10 0 0,4
22.09.2018 14:00:00 12,1 7,5 5 3 - - - 1018,8 10 0 0,6
22.09.2018 13:00:00 11,9 9,4 11 6 - - W 1019,9 10 0 1,0
22.09.2018 12:00:00 11,8 9,0 18 10 - - W 1019,8 10 0 0,8
22.09.2018 11:00:00 12,6 9,5 15 8 - - WSW 1019,9 10 0 0,0
22.09.2018 10:00:00 13,0 8,8 16 9 - - WSW 1019,7 10 0 0,0
22.09.2018 09:00:00 12,3 8,8 16 9 - - SW 1019,4 10 0 0,0
22.09.2018 08:00:00 11,7 8,9 16 9 - - WSW 1019,3 10 0 0,0
22.09.2018 07:00:00 11,8 8,6 15 8 - - WSW 1019,4 10 0 0,0
22.09.2018 06:00:00 11,6 8,4 13 7 - - WSW 1019,0 10 0 0,0
22.09.2018 05:00:00 11,6 8,7 15 8 - - WSW 1019,0 10 0 0,0
22.09.2018 04:00:00 11,5 8,8 16 9 - - WSW 1019,3 10 0 0,0
22.09.2018 03:00:00 11,1 8,1 13 7 - - SW 1019,1 10 0 0,0
22.09.2018 02:00:00 11,3 7,8 15 8 - - WSW 1018,8 10 0 0,0
22.09.2018 01:00:00 11,2 7,4 15 8 - - WSW 1018,6 10 - 0,0
22.09.2018 00:00:00 11,8 7,5 16 9 - - WSW 1018,6 10 0 0,0
21.09.2018 23:00:00 12,5 7,8 22 12 - - WSW 1017,8 10 0 0,0
21.09.2018 22:00:00 12,8 7,8 22 12 - - WSW 1017,3 10 0 0,0
21.09.2018 21:00:00 13,3 7,0 24 13 - - WSW 1016,3 10 0 0,0
21.09.2018 20:00:00 14,1 6,2 24 13 - - WSW 1015,5 10 0 0,0
21.09.2018 19:00:00 14,9 5,6 31 17 59 32 W 1014,2 10 30 0,0
21.09.2018 18:00:00 16,1 6,3 34 18 65 35 W 1012,6 10 48 0,0
21.09.2018 17:00:00 16,4 7,6 41 22 63 34 W 1011,6 10 60 0,0
21.09.2018 16:00:00 17,1 8,0 42 23 68 37 W 1011,1 10 60 0,0
21.09.2018 15:00:00 15,8 7,7 50 27 65 35 WSW 1010,5 10 36 0,0
21.09.2018 14:00:00 13,0 9,3 46 25 81 44 W 1010,6 10 24 0,6
21.09.2018 13:00:00 16,1 4,4 41 22 61 33 WSW 1009,3 10 48 0,0
21.09.2018 12:00:00 16,1 5,4 34 18 57 31 WSW 1008,9 10 48 0,0
21.09.2018 11:00:00 14,5 6,3 37 20 52 28 W 1008,7 10 36 0,0
21.09.2018 10:00:00 12,9 5,0 31 17 46 25 W 1008,3 10 60 0,0
21.09.2018 09:00:00 11,9 5,5 31 17 - - W 1007,1 10 54 0,0
21.09.2018 08:00:00 10,8 6,5 28 15 46 25 W 1005,9 10 24 0,0
21.09.2018 07:00:00 11,0 6,8 28 15 63 34 W 1004,1 10 0 0,0
21.09.2018 06:00:00 12,4 7,2 29 16 61 33 W 1002,8 10 0 0,0
21.09.2018 05:00:00 12,6 8,8 31 17 48 26 W 1001,4 10 0 0,0
21.09.2018 04:00:00 13,4 9,6 29 16 57 31 WSW 999,8 10 0 0,0
21.09.2018 03:00:00 14,7 11,3 37 20 83 45 WSW 998,5 10 0 0,8
21.09.2018 02:00:00 17,3 16,3 37 20 63 34 SW 997,1 3,0 0 2,0
21.09.2018 01:00:00 18,5 15,7 41 22 68 37 SSW 997,8 10 - 0,2
21.09.2018 00:00:00 18,3 15,8 35 19 63 34 SSW 999,2 10 0 0,2
20.09.2018 23:00:00 19,3 15,1 31 17 57 31 SSW 1000,8 10 0 0,0
20.09.2018 22:00:00 18,9 15,6 31 17 50 27 SSW 1002,7 10 0 0,0
20.09.2018 21:00:00 18,3 15,7 31 17 61 33 SW 1004,1 10 0 0,4
20.09.2018 20:00:00 19,7 14,3 29 16 54 29 SSW 1004,9 10 0 0,0
20.09.2018 19:00:00 20,3 14,0 34 18 59 32 SW 1005,7 10 0 0,0
20.09.2018 18:00:00 20,4 13,8 34 18 65 35 SW 1006,5 10 0 0,0
20.09.2018 17:00:00 20,9 13,9 37 20 65 35 SW 1007,6 10 0 0,0
20.09.2018 16:00:00 21,7 13,6 35 19 61 33 SW 1008,5 10 6 0,0
20.09.2018 15:00:00 20,8 13,5 37 20 57 31 SW 1009,6 10 18 0,0
20.09.2018 14:00:00 19,7 14,0 29 16 63 34 SSW 1010,2 10 0 0,0
20.09.2018 13:00:00 19,6 14,5 31 17 - - SSW 1010,6 10 0 0,0
20.09.2018 12:00:00 18,8 15,8 22 12 - - SSW 1011,3 10 0 0,6
20.09.2018 11:00:00 17,9 16,2 21 11 - - SSW 1011,9 8 0 0,4
20.09.2018 10:00:00 19,3 15,0 24 13 - - SW 1011,9 10 0 0,0
20.09.2018 09:00:00 18,5 14,7 24 13 - - SW 1011,9 10 6 0,0
20.09.2018 08:00:00 17,7 15,0 21 11 - - SW 1012,0 10 0 0,0
20.09.2018 07:00:00 17,1 15,5 18 10 - - SSW 1012,1 10 0 0,0
20.09.2018 06:00:00 17,1 15,3 22 12 - - SW 1012,3 5 0 0,0
20.09.2018 05:00:00 18,2 14,7 26 14 - - SSW 1012,4 10 0 0,0
20.09.2018 04:00:00 18,2 14,8 22 12 - - SSW 1012,6 10 0 0,0
20.09.2018 03:00:00 17,8 15,1 22 12 - - SSW 1012,9 10 0 0,0
20.09.2018 02:00:00 17,5 15,5 16 9 - - SW 1013,3 10 0 0,0
20.09.2018 01:00:00 16,6 15,4 11 6 - - SW 1013,7 10 - 0,0
20.09.2018 00:00:00 16,3 14,6 15 8 - - WSW 1014,1 10 0 0,0
19.09.2018 23:00:00 16,5 14,3 22 12 - - WSW 1014,4 8 0 0,0
19.09.2018 22:00:00 16,6 14,8 22 12 - - W 1014,4 9 0 0,0

tt = temperature
td = dewpoint
ff = wind speed
fx = gusts
dd = wind direction
ppp = reduced air pressure
vv = visibility
sd = sunshine duration
rr = precipitation

Next stations